CAPE
2 0 1 1 1 1 0 0 1 0 0 0 1 1 0 0 0 0 0 0 0 0 0 0 0 0 0 0 0 1 0 0 0 0 0 48 62 8 0 3 177 430 299 364 168
0 0 1 2 0 0 0 0 0 0 0 0 1 0 0 0 0 0 0 0 0 0 0 0 0 0 0 0 0 0 0 0 0 0 2 65 89 82 5 25 133 149 230 308 196
0 0 0 0 0 0 0 0 0 0 0 1 0 0 0 0 0 0 0 0 6 17 0 0 0 1 0 0 0 0 0 0 0 0 0 9 32 49 26 47 52 107 210 281 245
0 0 0 0 0 0 0 0 0 0 1 1 0 0 0 0 0 0 0 0 0 1 0 0 1 0 7 2 0 0 0 0 0 0 0 0 6 23 33 73 2 0 215 198 254
0 0 0 0 0 0 0 0 0 0 1 0 0 0 0 0 0 0 0 0 0 0 0 0 6 4 1 1 1 0 0 0 0 0 0 0 0 4 14 29 151 43 27 178 208
0 0 0 0 0 0 0 0 0 0 0 0 0 0 0 0 0 0 0 0 0 0 4 8 10 2 2 3 3 0 0 0 0 0 0 0 0 3 14 11 358 175 70 151 214
0 0 0 0 0 0 0 0 0 0 0 0 0 0 0 0 0 0 0 0 0 0 0 7 2 2 7 2 5 9 0 0 0 0 0 0 0 0 38 0 59 21 17 128 210
0 0 0 0 0 0 0 0 0 0 0 0 0 0 0 0 0 0 0 0 0 0 0 8 1 0 4 0 6 5 6 0 0 0 0 3 0 0 0 0 2 8 0 0 0
0 0 0 0 0 0 0 0 0 0 0 0 0 0 0 0 0 0 0 0 0 0 0 2 17 1 7 1 0 3 2 3 9 0 3 0 0 26 34 0 6 0 2 2 1
0 0 0 0 0 0 0 0 0 0 0 0 0 0 0 0 0 0 0 0 0 0 0 2 12 3 3 4 1 0 1 12 4 8 0 0 0 18 15 17 0 0 3 2 4
1 0 0 0 0 0 0 0 0 0 0 0 0 0 0 0 0 0 0 0 0 0 2 3 0 0 0 0 2 1 0 0 0 2 0 0 8 1 47 11 1 0 0 0 0
0 0 0 0 0 0 0 0 0 0 0 0 0 0 0 0 0 0 0 0 0 0 0 0 1 0 1 0 0 0 0 0 2 3 0 2 4 11 12 4 2 0 0 0 0
0 0 0 0 0 0 0 0 0 0 0 0 0 0 0 0 0 0 0 0 0 0 0 0 0 0 0 0 0 0 3 3 0 4 2 0 1 5 1 0 0 0 0 1 0
0 0 0 0 0 0 0 0 0 0 0 0 0 0 0 0 0 0 0 0 0 0 0 0 0 0 0 0 0 0 0 0 0 0 0 0 0 0 0 0 0 0 0 0 0
0 0 0 0 0 0 0 0 0 0 0 0 0 0 0 0 0 0 0 0 0 0 0 0 0 0 0 0 0 0 0 1 0 0 0 0 0 0 0 0 0 0 0 0 0
0 0 0 0 0 0 0 0 0 0 0 0 0 0 0 0 0 0 0 0 0 0 0 0 0 0 0 0 0 0 0 0 0 0 0 0 0 0 0 0 0 0 0 0 0
0 0 0 0 0 0 0 0 0 0 0 0 0 0 0 0 0 0 0 0 0 0 0 0 0 0 0 0 0 0 0 0 0 0 0 0 0 0 0 0 0 0 0 0 0
0 0 0 0 0 0 0 0 0 0 0 0 0 0 0 0 0 0 0 0 0 0 0 0 0 0 0 0 0 0 0 0 0 0 0 0 0 0 0 0 0 0 0 0 0
0 0 0 0 0 0 0 0 0 0 0 0 0 0 0 0 0 0 0 0 0 0 0 0 0 0 0 0 0 0 0 0 0 0 0 0 0 0 0 0 0 0 0 0 0
0 0 0 0 0 0 0 0 0 0 0 0 0 0 0 0 0 0 0 0 0 0 0 0 0 0 0 0 0 0 0 0 0 0 0 0 0 0 0 0 0 0 0 0 0
0 0 0 0 0 0 0 0 0 0 0 0 0 0 0 0 0 0 0 0 0 0 0 1 1 0 0 0 0 0 0 0 0 0 0 0 0 0 0 0 0 0 0 0 0
0 0 0 0 0 0 0 0 0 0 0 0 0 0 0 0 0 0 0 0 0 0 0 0 0 0 0 0 0 0 0 0 0 0 0 0 0 0 0 0 0 0 0 0 0
0 0 0 0 0 0 0 0 0 0 0 0 0 0 0 0 0 0 0 0 0 0 0 0 0 0 0 0 0 0 0 0 0 0 0 0 0 0 0 0 0 0 0 0 0
0 0 0 0 0 0 0 0 0 0 0 0 0 0 0 0 0 0 0 0 0 0 0 0 0 0 0 0 0 0 0 0 0 0 0 0 0 0 0 0 0 0 0 0 0
0 0 0 0 0 0 0 0 0 0 0 0 0 0 0 0 0 0 0 0 0 0 0 0 0 0 0 0 0 0 0 0 0 0 0 0 0 0 0 0 0 0 0 0 0
0 0 0 0 0 0 0 0 0 0 0 0 0 0 0 0 0 0 0 0 0 0 0 0 0 0 0 0 0 0 0 0 0 0 0 0 0 0 0 0 0 0 0 0 0
0 0 0 0 0 0 0 0 0 0 0 0 0 0 0 0 0 0 0 0 0 0 0 0 0 0 0 0 0 0 0 0 0 0 0 0 0 0 0 0 0 0 0 0 0
CIN
0 0 0 0 0 0 0 0 0 0 0 0 0 0 0 0 0 0 0 0 0 0 0 0 0 0 0 0 0 0 0 0 0 0 0 -10 -3 -3 0 -1 -19 -38 -53 -121 -219
0 0 0 0 0 0 0 0 0 0 0 0 0 0 0 0 0 0 0 0 0 0 0 0 0 0 0 0 0 0 0 0 0 0 -1 -8 -3 -10 -6 -25 -11 -49 -113 -124 -153
0 0 0 0 0 0 0 0 0 0 0 0 0 0 0 0 0 0 0 0 -2 -4 0 0 0 -4 -1 0 0 0 0 0 0 0 -1 -34 -48 -28 -5 -3 -2 -23 -73 -118 -121
0 0 0 0 0 0 0 0 0 0 0 0 0 0 0 0 0 0 0 0 0 -8 0 0 0 0 0 -1 0 0 0 0 0 0 0 0 -59 -70 -44 -6 -10 0 -99 -118 -94
0 0 0 0 0 0 0 0 0 0 0 0 0 0 0 0 0 0 0 0 0 0 0 0 0 -1 -1 0 0 0 0 0 0 0 0 0 0 -31 -70 -37 -88 -113 -49 -125 -82
0 0 0 0 0 0 0 0 0 0 0 0 0 0 0 0 0 0 0 0 0 0 0 -1 0 0 0 0 0 0 0 0 0 0 0 0 0 -7 -11 -38 -20 -109 -131 -109 -62
0 0 0 0 0 0 0 0 0 0 0 0 0 0 0 0 0 0 0 0 0 0 0 0 -2 -1 0 0 -1 -1 0 0 0 0 0 0 0 0 -8 0 -63 -137 -42 -66 -37
0 0 0 0 0 0 0 0 0 0 0 0 0 0 0 0 0 0 0 0 0 0 0 -5 -5 -1 0 0 0 -1 -1 0 0 0 0 -1 0 0 0 0 -65 -95 0 0 0
0 0 0 0 0 0 0 0 0 0 0 0 0 0 0 0 0 0 0 0 0 0 0 -2 0 -2 0 0 0 0 -1 -3 -2 0 -1 0 0 0 -5 -4 -49 0 0 0 0
0 0 0 0 0 0 0 0 0 0 0 0 0 0 0 0 0 0 0 0 0 0 0 0 0 0 0 0 0 0 0 -7 -7 -2 0 0 0 -1 -18 -21 0 0 0 0 0
0 0 0 0 0 0 0 0 0 0 0 0 0 0 0 0 0 0 0 0 0 0 0 0 0 0 0 0 0 0 0 0 0 0 0 0 0 0 0 -5 -1 0 0 0 0
0 0 0 0 0 0 0 0 0 0 0 0 0 0 0 0 0 0 0 0 0 0 0 0 -1 0 0 0 0 0 0 0 0 0 0 0 0 0 0 0 0 0 0 0 0
0 0 0 0 0 0 0 0 0 0 0 0 0 0 0 0 0 0 0 0 0 0 0 0 0 0 -1 0 0 0 -1 0 0 -1 0 0 0 0 0 0 0 0 0 0 0
0 0 0 0 0 0 0 0 0 0 0 0 0 0 0 0 0 0 0 0 0 0 0 0 0 0 0 0 0 0 0 0 0 0 0 0 0 0 0 0 0 0 0 0 0
0 0 0 0 0 0 0 0 0 0 0 0 0 0 0 0 0 0 0 0 0 0 0 0 0 0 0 0 0 0 0 -45 0 0 0 0 0 0 0 0 0 0 0 0 0
0 0 0 0 0 0 0 0 0 0 0 0 0 0 0 0 0 0 0 0 0 0 0 0 0 0 0 0 0 0 0 0 0 0 0 0 0 0 0 0 0 0 0 0 0
0 0 0 0 0 0 0 0 0 0 0 0 0 0 0 0 0 0 0 0 0 0 0 0 0 0 0 0 0 0 0 0 0 0 0 0 0 0 0 0 0 0 0 0 0
0 0 0 0 0 0 0 0 0 0 0 0 0 0 0 0 0 0 0 0 0 0 0 0 0 0 0 0 0 0 0 0 0 0 0 0 0 0 0 0 0 0 0 0 0
0 0 0 0 0 0 0 0 0 0 0 0 0 0 0 0 0 0 0 0 0 0 0 0 0 0 0 0 0 0 0 0 0 0 0 0 0 0 0 0 0 0 0 0 0
0 0 0 0 0 0 0 0 0 0 0 0 0 0 0 0 0 0 0 0 0 0 0 0 0 0 0 0 0 0 0 0 0 0 0 0 0 0 0 0 0 0 0 0 0
0 0 0 0 0 0 0 0 0 0 0 0 0 0 0 0 0 0 0 0 0 0 0 0 0 0 0 0 0 0 0 0 0 0 0 0 0 0 0 0 0 0 0 0 0
0 0 0 0 0 0 0 0 0 0 0 0 0 0 0 0 0 0 0 0 0 0 0 0 0 0 0 0 0 0 0 0 0 0 0 0 0 0 0 0 0 0 0 0 0
0 0 0 0 0 0 0 0 0 0 0 0 0 0 0 0 0 0 0 0 0 0 0 0 0 0 0 0 0 0 0 0 0 0 0 0 0 0 0 0 0 0 0 0 0
0 0 0 0 0 0 0 0 0 0 0 0 0 0 0 0 0 0 0 0 0 0 0 0 0 0 0 0 0 0 0 0 0 0 0 0 0 0 0 0 0 0 0 0 0
0 0 0 0 0 0 0 0 0 0 0 0 0 0 0 0 0 0 0 0 0 0 0 0 0 0 0 0 0 0 0 0 0 0 0 0 0 0 0 0 0 0 0 0 0
0 0 0 0 0 0 0 0 0 0 0 0 0 0 0 0 0 0 0 0 0 0 0 0 0 0 0 0 0 0 0 0 0 0 0 0 0 0 0 0 0 0 0 0 0
0 0 0 0 0 0 0 0 0 0 0 0 0 0 0 0 0 0 0 0 0 0 0 0 0 0 0 0 0 0 0 0 0 0 0 0 0 0 0 0 0 0 0 0 0
Wind_Speed
23 25 26 27 28 28 29 29 29 30 31 32 32 32 31 32 29 25 27 25 25 27 29 33 30 32 29 28 26 27 39 47 50 48 47 35 38 31 33 38 27 22 25 21 10
24 25 26 27 28 28 28 29 29 30 30 31 31 31 30 31 24 26 26 23 25 27 32 34 35 34 30 29 28 30 39 44 44 44 47 39 40 37 34 34 34 29 23 17 11
24 25 26 27 28 29 29 29 29 30 29 29 29 29 28 27 23 28 26 25 25 27 28 28 31 28 27 25 26 29 41 39 40 36 35 41 41 37 39 39 35 32 26 21 17
24 25 26 27 28 29 29 29 29 29 29 29 28 26 26 24 25 29 27 26 29 27 26 26 25 26 24 22 17 28 35 39 39 35 34 41 37 43 37 37 28 24 21 20 20
24 25 27 28 28 29 29 29 29 28 28 27 24 22 23 25 25 27 27 28 27 25 25 22 23 23 19 14 14 17 34 37 37 36 36 36 43 40 40 33 29 25 25 25 24
24 25 26 27 29 29 30 29 29 29 29 23 19 19 22 23 24 26 27 26 26 25 23 20 18 18 13 9 9 17 27 32 34 35 34 37 41 35 36 32 27 23 25 26 26
24 26 27 28 29 30 30 29 29 31 24 20 18 18 22 21 24 26 25 24 22 23 23 23 16 17 15 10 5 3 32 33 35 33 32 32 43 44 32 26 24 21 21 21 21
24 25 27 29 30 31 31 29 28 24 21 18 17 19 18 20 23 25 26 23 22 21 22 21 18 15 5 5 5 9 19 34 31 33 29 29 47 45 31 22 19 19 19 20 19
24 25 27 29 30 31 31 30 23 21 20 17 18 19 21 22 26 25 25 24 22 20 21 20 19 7 9 8 10 14 11 20 24 34 31 38 32 32 33 17 18 16 16 18 19
24 25 27 28 29 30 31 25 19 18 19 18 18 18 21 23 23 22 24 22 23 21 21 20 18 9 12 12 15 11 14 21 31 37 37 35 33 17 21 21 13 13 15 15 19
24 25 26 27 28 28 26 19 19 18 21 20 20 19 18 21 19 24 24 22 23 24 33 24 27 13 7 12 9 11 18 25 24 30 28 27 11 9 17 14 10 12 14 16 19
23 24 25 27 26 24 20 20 19 18 18 16 17 17 18 20 21 25 23 25 25 31 31 30 34 9 11 14 14 13 27 32 32 13 10 3 10 13 6 10 12 13 15 17 21
22 23 24 25 20 20 20 19 17 16 18 17 17 19 19 19 21 22 24 24 24 29 30 34 22 8 12 11 12 15 13 15 10 8 7 7 6 5 3 3 7 12 15 17 21
20 21 22 22 18 18 18 18 16 16 17 17 18 19 19 17 19 20 21 24 23 27 25 25 14 7 2 4 6 11 4 4 3 7 5 4 3 7 5 3 5 10 17 18 18
18 18 19 20 16 17 18 16 16 17 20 17 18 17 18 20 18 24 20 21 24 26 24 25 23 12 6 3 6 9 11 3 4 6 6 4 2 5 6 5 9 12 13 14 17
16 16 15 15 16 16 16 15 17 16 17 15 18 22 19 22 20 17 19 20 18 18 21 23 19 19 10 8 9 10 14 14 6 12 5 6 3 7 8 10 10 11 12 13 12
13 14 15 14 15 15 14 16 16 15 15 15 18 19 19 21 20 20 22 26 21 21 23 19 22 17 8 13 11 12 12 13 10 6 4 6 7 8 9 8 9 10 13 13 11
13 12 15 14 14 13 15 16 16 13 12 14 17 18 18 20 19 19 17 19 24 19 18 20 19 17 12 14 16 13 12 13 11 12 9 8 8 8 7 8 10 11 15 14 13
10 14 13 14 14 14 14 15 14 12 12 12 16 17 16 17 17 17 19 17 18 19 18 17 17 14 14 13 14 17 14 13 8 11 11 10 7 8 8 9 11 13 15 15 15
12 13 14 17 15 14 13 14 13 12 12 13 14 15 15 16 16 16 16 15 15 17 16 15 15 14 12 12 14 12 18 16 17 14 16 16 15 11 11 11 11 13 14 15 15
14 15 15 14 15 14 15 15 14 11 13 14 13 14 14 14 14 14 14 14 14 15 16 15 15 14 14 15 13 12 12 11 15 17 18 16 18 14 13 13 12 13 14 15 16
15 20 17 13 14 16 17 15 15 11 12 14 14 13 12 11 14 13 12 13 14 13 14 15 13 14 14 14 13 13 12 11 10 12 17 18 18 13 11 12 13 14 16 18 19
17 19 17 15 19 18 18 17 15 13 12 12 12 12 12 11 14 12 11 11 13 12 12 13 13 14 13 13 12 13 12 12 11 10 7 17 18 13 12 13 14 15 16 18 20
19 23 20 19 20 19 18 18 15 15 14 12 12 10 11 11 13 11 10 10 12 13 14 11 12 11 13 14 14 11 11 11 11 8 8 7 9 13 13 14 15 16 17 19 20
20 25 19 22 21 20 17 17 15 14 14 11 12 8 8 10 11 10 10 10 10 13 13 12 10 11 12 13 13 11 10 11 8 9 6 7 5 8 13 13 15 16 17 19 21
21 21 19 22 19 16 17 18 14 13 10 13 12 4 6 11 11 8 7 8 10 10 11 12 11 11 10 13 15 12 7 7 10 8 8 7 6 8 10 13 15 17 18 19 20
21 20 21 19 19 16 20 17 14 12 14 14 7 7 9 12 11 11 10 10 9 9 9 10 10 11 14 14 16 14 5 4 10 9 7 5 8 6 9 11 13 16 18 20 21
Wind_Direction
340 342 343 342 344 346 348 348 348 348 348 349 351 353 353 352 355 5 358 357 354 349 344 335 332 329 320 306 297 290 276 268 264 260 260 265 262 257 260 254 260 265 265 271 264
336 338 340 341 343 345 348 349 349 348 349 350 353 354 356 356 4 3 1 359 354 350 344 341 333 329 320 310 299 281 273 270 269 266 257 259 258 257 254 253 252 256 264 264 253
334 337 339 340 343 343 344 349 351 350 350 353 356 357 359 3 5 359 3 359 354 347 346 344 339 337 325 315 298 288 272 270 269 268 264 257 255 256 252 247 250 250 252 251 248
330 333 337 339 342 343 344 348 350 350 351 353 357 1 5 11 6 1 4 360 354 355 352 349 353 343 332 323 320 293 276 269 265 268 266 255 257 248 252 251 250 250 247 245 244
330 332 334 337 339 342 343 348 349 351 351 353 1 9 12 9 8 6 7 1 2 3 1 359 355 355 350 346 328 308 275 268 264 265 263 260 248 247 246 255 251 249 246 245 244
328 331 333 335 338 341 342 346 347 350 349 0 12 20 14 13 14 10 8 8 11 15 14 13 14 21 17 7 352 327 282 267 264 258 259 252 246 247 241 249 242 242 243 244 243
327 329 331 332 335 337 341 345 348 345 359 11 21 25 14 20 16 13 13 15 23 25 23 19 31 28 36 42 35 345 247 266 255 253 255 250 239 230 236 239 237 237 241 244 244
328 330 331 331 331 332 337 344 348 358 5 17 30 24 27 25 19 19 19 28 32 33 30 36 45 42 115 178 181 201 215 246 254 248 248 238 224 225 223 228 229 230 238 242 246
329 329 330 330 332 334 337 342 356 5 15 30 26 24 26 21 20 23 25 33 38 47 46 51 48 110 133 121 93 109 176 193 203 205 207 194 215 213 213 220 222 224 235 239 246
327 329 330 332 334 336 336 351 6 16 16 22 28 30 25 22 24 29 30 43 46 49 49 48 70 145 120 103 90 88 140 143 143 160 177 183 207 182 193 212 232 226 237 251 251
327 329 331 331 335 339 349 4 6 7 9 13 19 27 27 25 40 34 35 50 54 54 40 60 76 109 116 96 105 131 145 141 160 164 180 181 160 160 197 199 218 232 253 257 260
327 329 330 331 338 348 -0 2 6 7 7 15 25 34 35 33 36 35 44 49 54 46 53 73 75 128 128 102 83 103 123 131 121 85 162 118 167 159 105 214 236 251 262 262 262
326 329 331 334 349 355 0 4 12 17 7 14 26 30 34 37 42 39 46 57 58 53 60 69 93 159 136 119 96 82 94 123 110 124 90 160 76 66 339 254 262 273 274 270 265
326 331 333 337 345 353 357 5 14 17 8 15 23 33 37 45 46 51 56 62 65 57 72 81 100 172 149 132 110 97 71 123 53 146 74 237 124 22 357 346 280 283 276 274 276
328 333 337 341 347 349 355 4 11 9 356 13 18 35 41 45 44 38 61 69 67 65 76 77 83 126 329 250 187 158 136 154 45 102 108 24 170 337 328 299 314 297 295 299 276
330 333 342 343 346 351 356 2 360 4 357 18 18 13 32 35 42 51 59 67 85 77 79 80 101 106 262 222 298 190 164 164 232 170 29 351 253 337 309 291 302 309 325 332 312
336 339 338 348 344 357 2 352 354 351 10 17 10 14 28 30 38 47 51 50 62 59 59 78 81 110 166 255 290 306 259 237 234 264 288 302 7 337 312 318 312 320 346 345 338
337 349 342 347 356 360 350 352 341 4 13 11 8 13 17 21 35 47 62 66 57 71 70 59 67 89 115 128 283 294 286 264 283 250 247 302 278 269 314 321 344 352 6 5 1
344 333 336 335 345 342 347 339 344 1 11 17 7 4 13 23 31 41 49 66 66 71 61 62 67 102 115 130 251 289 307 296 297 274 264 270 301 338 323 345 348 358 10 7 9
319 322 323 318 328 336 337 332 339 353 2 2 1 3 5 13 22 30 44 65 70 71 83 79 63 86 109 135 119 38 298 298 289 295 276 260 266 272 300 310 329 348 353 354 351
307 308 317 321 322 325 320 324 328 337 346 350 357 357 360 8 17 24 34 60 61 67 67 77 67 68 77 70 87 112 106 351 309 295 284 275 267 296 295 313 321 337 343 342 342
294 294 309 311 310 316 311 320 321 332 336 341 347 351 355 12 9 17 28 42 41 58 61 57 62 50 59 82 97 91 102 96 105 328 295 286 276 309 323 331 331 333 353 355 357
284 293 305 300 296 297 309 311 313 318 320 334 340 347 355 1 357 12 25 48 32 38 53 39 48 38 39 47 57 46 52 73 76 83 24 295 279 301 311 318 328 329 351 355 358
281 283 290 287 296 297 297 299 304 308 310 322 334 344 346 346 347 3 19 38 35 28 19 46 39 36 18 22 17 33 34 33 32 51 69 13 312 286 300 309 319 322 334 340 344
275 280 284 285 281 286 290 299 295 298 305 310 319 324 335 342 337 346 360 18 26 18 16 24 29 23 19 12 8 5 8 5 19 16 52 56 87 300 299 309 318 325 334 335 335
267 278 282 283 286 272 280 284 286 293 297 297 303 307 317 326 329 344 358 11 10 25 19 8 12 15 6 355 346 347 356 4 346 349 353 15 19 331 322 315 313 318 324 328 332
261 277 279 277 277 274 276 279 278 281 291 302 295 309 305 315 332 351 354 1 12 9 7 8 13 2 348 349 341 335 296 320 326 334 344 338 336 332 324 325 326 326 325 325 328